#Datum;Uhrzeit;WR;Pac;DaySum;Status;WR;Pac;DaySum;Status;Pdc1;Udc;Temp;WR;Pac;DaySum;Status;Pdc1;Udc;Temp;WR;Pac;DaySum;Status;Pdc1;Udc;Temp;WR;Pac;DaySum;Status;Pdc1;Pdc2;Udc1;Udc2;Temp;WR;Pac;DaySum;Status;Pdc1;Pdc2;Udc1;Udc2;Temp;WR;Pac;DaySum;Status;Pdc1;Udc;Temp;WR;Pac;DaySum;Status;Pdc1;Udc;Temp;WR;Pac;DaySum;Status;Pdc1;Udc;Temp
26.01.19;23:55:00;1;225;14038;0;2;0;0;0;0;0;0;3;0;114;0;0;0;0;4;0;0;0;0;0;0;5;0;31;0;0;0;0;0;0;6;0;0;0;0;0;0;0;0;7;0;8;0;0;0;0;8;0;74;0;0;0;0;9;0;11;0;0;0;0
26.01.19;23:50:00;1;578;14019;0;2;0;0;0;0;0;0;3;0;114;0;0;0;0;4;0;0;0;0;0;0;5;0;31;0;0;0;0;0;0;6;0;0;0;0;0;0;0;0;7;0;8;0;0;0;0;8;0;74;0;0;0;0;9;0;11;0;0;0;0
26.01.19;23:45:00;1;225;13976;0;2;0;0;0;0;0;0;3;0;114;0;0;0;0;4;0;0;0;0;0;0;5;0;31;0;0;0;0;0;0;6;0;0;0;0;0;0;0;0;7;0;8;0;0;0;0;8;0;74;0;0;0;0;9;0;11;0;0;0;0
26.01.19;23:40:00;1;480;13957;0;2;0;0;0;0;0;0;3;0;114;0;0;0;0;4;0;0;0;0;0;0;5;0;31;0;0;0;0;0;0;6;0;0;0;0;0;0;0;0;7;0;8;0;0;0;0;8;0;74;0;0;0;0;9;0;11;0;0;0;0
26.01.19;23:35:00;1;266;13914;0;2;0;0;0;0;0;0;3;0;114;0;0;0;0;4;0;0;0;0;0;0;5;0;31;0;0;0;0;0;0;6;0;0;0;0;0;0;0;0;7;0;8;0;0;0;0;8;0;74;0;0;0;0;9;0;11;0;0;0;0
26.01.19;23:30:00;1;444;13892;0;2;0;0;0;0;0;0;3;0;114;0;0;0;0;4;0;0;0;0;0;0;5;0;31;0;0;0;0;0;0;6;0;0;0;0;0;0;0;0;7;0;8;0;0;0;0;8;0;74;0;0;0;0;9;0;11;0;0;0;0
26.01.19;23:25:00;1;262;13846;0;2;0;0;0;0;0;0;3;0;114;0;0;0;0;4;0;0;0;0;0;0;5;0;31;0;0;0;0;0;0;6;0;0;0;0;0;0;0;0;7;0;8;0;0;0;0;8;0;74;0;0;0;0;9;0;11;0;0;0;0
26.01.19;23:20:00;1;465;13823;0;2;0;0;0;0;0;0;3;0;114;0;0;0;0;4;0;0;0;0;0;0;5;0;31;0;0;0;0;0;0;6;0;0;0;0;0;0;0;0;7;0;8;0;0;0;0;8;0;74;0;0;0;0;9;0;11;0;0;0;0
26.01.19;23:15:00;1;288;13775;0;2;0;0;0;0;0;0;3;0;114;0;0;0;0;4;0;0;0;0;0;0;5;0;31;0;0;0;0;0;0;6;0;0;0;0;0;0;0;0;7;0;8;0;0;0;0;8;0;74;0;0;0;0;9;0;11;0;0;0;0
26.01.19;23:10:00;1;289;13751;0;2;0;0;0;0;0;0;3;0;114;0;0;0;0;4;0;0;0;0;0;0;5;0;31;0;0;0;0;0;0;6;0;0;0;0;0;0;0;0;7;0;8;0;0;0;0;8;0;74;0;0;0;0;9;0;11;0;0;0;0
26.01.19;23:05:00;1;701;13709;0;2;0;0;0;0;0;0;3;0;114;0;0;0;0;4;0;0;0;0;0;0;5;0;31;0;0;0;0;0;0;6;0;0;0;0;0;0;0;0;7;0;8;0;0;0;0;8;0;74;0;0;0;0;9;0;11;0;0;0;0
26.01.19;23:00:00;1;291;13679;0;2;0;0;0;0;0;0;3;0;114;0;0;0;0;4;0;0;0;0;0;0;5;0;31;0;0;0;0;0;0;6;0;0;0;0;0;0;0;0;7;0;8;0;0;0;0;8;0;74;0;0;0;0;9;0;11;0;0;0;0
26.01.19;22:55:00;1;696;13643;0;2;0;0;0;0;0;0;3;0;114;0;0;0;0;4;0;0;0;0;0;0;5;0;31;2;0;0;0;0;0;6;0;0;2;0;0;0;0;0;7;0;8;0;0;0;0;8;0;74;0;0;0;0;9;0;11;0;0;0;0
26.01.19;22:50:00;1;255;13607;0;2;0;0;0;0;0;0;3;0;114;0;0;0;0;4;0;0;0;0;0;0;5;0;31;2;0;0;0;0;0;6;0;0;2;0;0;0;0;0;7;0;8;0;0;0;0;8;0;74;0;0;0;0;9;0;11;0;0;0;0
26.01.19;22:45:00;1;631;13585;0;2;0;0;0;0;0;0;3;0;114;0;0;0;0;4;0;0;0;0;0;0;5;0;31;2;0;0;0;0;0;6;0;0;2;0;0;0;0;0;7;0;8;0;0;0;0;8;0;74;0;0;0;0;9;0;11;0;0;0;0
26.01.19;22:40:00;1;229;13542;0;2;0;0;0;0;0;0;3;0;114;0;0;0;0;4;0;0;0;0;0;0;5;0;31;2;0;0;0;0;0;6;0;0;2;0;0;0;0;0;7;0;8;0;0;0;0;8;0;74;0;0;0;0;9;0;11;0;0;0;0
26.01.19;22:35:00;1;675;13522;0;2;0;0;0;0;0;0;3;0;114;0;0;0;0;4;0;0;0;0;0;0;5;0;31;2;0;0;0;0;0;6;0;0;2;0;0;0;0;0;7;0;8;0;0;0;0;8;0;74;0;0;0;0;9;0;11;0;0;0;0
26.01.19;22:30:00;1;265;13476;0;2;0;0;0;0;0;0;3;0;114;0;0;0;0;4;0;0;0;0;0;0;5;0;31;2;0;0;0;0;0;6;0;0;2;0;0;0;0;0;7;0;8;0;0;0;0;8;0;74;0;0;0;0;9;0;11;0;0;0;0
26.01.19;22:25:00;1;444;13454;0;2;0;0;0;0;0;0;3;0;114;0;0;0;0;4;0;0;0;0;0;0;5;0;31;2;0;0;0;0;0;6;0;0;2;0;0;0;0;0;7;0;8;0;0;0;0;8;0;74;0;0;0;0;9;0;11;0;0;0;0
26.01.19;22:20:00;1;222;13410;0;2;0;0;0;0;0;0;3;0;114;0;0;0;0;4;0;0;0;0;0;0;5;0;31;2;0;0;0;0;0;6;0;0;2;0;0;0;0;0;7;0;8;0;0;0;0;8;0;74;0;0;0;0;9;0;11;0;0;0;0
26.01.19;22:15:00;1;422;13391;0;2;0;0;0;0;0;0;3;0;114;0;0;0;0;4;0;0;0;0;0;0;5;0;31;2;0;0;0;0;0;6;0;0;2;0;0;0;0;0;7;0;8;0;0;0;0;8;0;74;0;0;0;0;9;0;11;0;0;0;0
26.01.19;22:10:00;1;222;13349;0;2;0;0;0;0;0;0;3;0;114;0;0;0;0;4;0;0;0;0;0;0;5;0;31;2;0;0;0;0;0;6;0;0;2;0;0;0;0;0;7;0;8;0;0;0;0;8;0;74;0;0;0;0;9;0;11;0;0;0;0
26.01.19;22:05:00;1;695;13330;0;2;0;0;0;0;0;0;3;0;114;0;0;0;0;4;0;0;0;0;0;0;5;0;31;2;0;0;0;0;0;6;0;0;2;0;0;0;0;0;7;0;8;0;0;0;0;8;0;74;0;0;0;0;9;0;11;0;0;0;0
26.01.19;22:00:00;1;226;13287;0;2;0;0;0;0;0;0;3;0;114;0;0;0;0;4;0;0;0;0;0;0;5;0;31;2;0;0;0;0;0;6;0;0;2;0;0;0;0;0;7;0;8;0;0;0;0;8;0;74;0;0;0;0;9;0;11;0;0;0;0
26.01.19;21:55:00;1;628;13268;0;2;0;0;0;0;0;0;3;0;114;0;0;0;0;4;0;0;0;0;0;0;5;0;31;2;0;0;0;0;0;6;0;0;2;0;0;0;0;0;7;0;8;0;0;0;0;8;0;74;0;0;0;0;9;0;11;0;0;0;0
26.01.19;21:50:00;1;225;13225;0;2;0;0;0;0;0;0;3;0;114;0;0;0;0;4;0;0;0;0;0;0;5;0;31;2;0;0;0;0;0;6;0;0;2;0;0;0;0;0;7;0;8;0;0;0;0;8;0;74;0;0;0;0;9;0;11;0;0;0;0
26.01.19;21:45:00;1;631;13206;0;2;0;0;0;0;0;0;3;0;114;0;0;0;0;4;0;0;0;0;0;0;5;0;31;2;0;0;0;0;0;6;0;0;2;0;0;0;0;0;7;0;8;0;0;0;0;8;0;74;0;0;0;0;9;0;11;0;0;0;0
26.01.19;21:40:00;1;241;13163;0;2;0;0;0;0;0;0;3;0;114;0;0;0;0;4;0;0;0;0;0;0;5;0;31;2;0;0;0;0;0;6;0;0;2;0;0;0;0;0;7;0;8;0;0;0;0;8;0;74;0;0;0;0;9;0;11;0;0;0;0
26.01.19;21:35:00;1;668;13143;0;2;0;0;0;0;0;0;3;0;114;0;0;0;0;4;0;0;0;0;0;0;5;0;31;2;0;0;0;0;0;6;0;0;2;0;0;0;0;0;7;0;8;0;0;0;0;8;0;74;0;0;0;0;9;0;11;0;0;0;0
26.01.19;21:30:00;1;272;13097;0;2;0;0;0;0;0;0;3;0;114;0;0;0;0;4;0;0;0;0;0;0;5;0;31;2;0;0;0;0;0;6;0;0;2;0;0;0;0;0;7;0;8;0;0;0;0;8;0;74;0;0;0;0;9;0;11;0;0;0;0
26.01.19;21:25:00;1;480;13074;0;2;0;0;0;0;0;0;3;0;114;0;0;0;0;4;0;0;0;0;0;0;5;0;31;2;0;0;0;0;0;6;0;0;2;0;0;0;0;0;7;0;8;0;0;0;0;8;0;74;0;0;0;0;9;0;11;0;0;0;0
26.01.19;21:20:00;1;228;13029;0;2;0;0;0;0;0;0;3;0;114;0;0;0;0;4;0;0;0;0;0;0;5;0;31;2;0;0;0;0;0;6;0;0;2;0;0;0;0;0;7;0;8;0;0;0;0;8;0;74;0;0;0;0;9;0;11;0;0;0;0
26.01.19;21:15:00;1;523;13010;0;2;0;0;0;0;0;0;3;0;114;0;0;0;0;4;0;0;0;0;0;0;5;0;31;2;0;0;0;0;0;6;0;0;2;0;0;0;0;0;7;0;8;0;0;0;0;8;0;74;0;0;0;0;9;0;11;0;0;0;0
26.01.19;21:10:00;1;305;12962;0;2;0;0;0;0;0;0;3;0;114;0;0;0;0;4;0;0;0;0;0;0;5;0;31;2;0;0;0;0;0;6;0;0;2;0;0;0;0;0;7;0;8;0;0;0;0;8;0;74;0;0;0;0;9;0;11;0;0;0;0
26.01.19;21:05:00;1;513;12937;0;2;0;0;0;0;0;0;3;0;114;0;0;0;0;4;0;0;0;0;0;0;5;0;31;2;0;0;0;0;0;6;0;0;2;0;0;0;0;0;7;0;8;0;0;0;0;8;0;74;0;0;0;0;9;0;11;0;0;0;0
26.01.19;21:00:00;1;295;12888;0;2;0;0;0;0;0;0;3;0;114;0;0;0;0;4;0;0;0;0;0;0;5;0;31;2;0;0;0;0;0;6;0;0;2;0;0;0;0;0;7;0;8;0;0;0;0;8;0;74;0;0;0;0;9;0;11;0;0;0;0
26.01.19;20:55:00;1;502;12863;0;2;0;0;0;0;0;0;3;0;114;0;0;0;0;4;0;0;0;0;0;0;5;0;31;2;0;0;0;0;0;6;0;0;2;0;0;0;0;0;7;0;8;0;0;0;0;8;0;74;0;0;0;0;9;0;11;0;0;0;0
26.01.19;20:50:00;1;294;12815;0;2;0;0;0;0;0;0;3;0;114;0;0;0;0;4;0;0;0;0;0;0;5;0;31;2;0;0;0;0;0;6;0;0;2;0;0;0;0;0;7;0;8;0;0;0;0;8;0;74;0;0;0;0;9;0;11;0;0;0;0
26.01.19;20:45:00;1;507;12791;0;2;0;0;0;0;0;0;3;0;114;0;0;0;0;4;0;0;0;0;0;0;5;0;31;2;0;0;0;0;0;6;0;0;2;0;0;0;0;0;7;0;8;0;0;0;0;8;0;74;0;0;0;0;9;0;11;0;0;0;0
26.01.19;20:40:00;1;263;12742;0;2;0;0;0;0;0;0;3;0;114;0;0;0;0;4;0;0;0;0;0;0;5;0;31;2;0;0;0;0;0;6;0;0;2;0;0;0;0;0;7;0;8;0;0;0;0;8;0;74;0;0;0;0;9;0;11;0;0;0;0
26.01.19;20:35:00;1;353;12720;0;2;0;0;0;0;0;0;3;0;114;0;0;0;0;4;0;0;0;0;0;0;5;0;31;2;0;0;0;0;0;6;0;0;2;0;0;0;0;0;7;0;8;0;0;0;0;8;0;74;0;0;0;0;9;0;11;0;0;0;0
26.01.19;20:30:00;1;644;12676;0;2;0;0;0;0;0;0;3;0;114;0;0;0;0;4;0;0;0;0;0;0;5;0;31;2;0;0;0;0;0;6;0;0;2;0;0;0;0;0;7;0;8;0;0;0;0;8;0;74;0;0;0;0;9;0;11;0;0;0;0
26.01.19;20:25:00;1;298;12651;0;2;0;0;0;0;0;0;3;0;114;0;0;0;0;4;0;0;0;0;0;0;5;0;31;2;0;0;0;0;0;6;0;0;2;0;0;0;0;0;7;0;8;0;0;0;0;8;0;74;0;0;0;0;9;0;11;0;0;0;0
26.01.19;20:20:00;1;439;12611;0;2;0;0;0;0;0;0;3;0;114;0;0;0;0;4;0;0;0;0;0;0;5;0;31;2;0;0;0;0;0;6;0;0;2;0;0;0;0;0;7;0;8;0;0;0;0;8;0;74;0;0;0;0;9;0;11;0;0;0;0
26.01.19;20:15:00;1;228;12589;0;2;0;0;0;0;0;0;3;0;114;0;0;0;0;4;0;0;0;0;0;0;5;0;31;2;0;0;0;0;0;6;0;0;2;0;0;0;0;0;7;0;8;0;0;0;0;8;0;74;0;0;0;0;9;0;11;0;0;0;0
26.01.19;20:10:00;1;434;12555;0;2;0;0;0;0;0;0;3;0;114;0;0;0;0;4;0;0;0;0;0;0;5;0;31;2;0;0;0;0;0;6;0;0;2;0;0;0;0;0;7;0;8;0;0;0;0;8;0;74;0;0;0;0;9;0;11;0;0;0;0
26.01.19;20:05:00;1;260;12527;0;2;0;0;0;0;0;0;3;0;114;0;0;0;0;4;0;0;0;0;0;0;5;0;31;2;0;0;0;0;0;6;0;0;2;0;0;0;0;0;7;0;8;0;0;0;0;8;0;74;0;0;0;0;9;0;11;0;0;0;0
26.01.19;20:00:00;1;440;12487;0;2;0;0;0;0;0;0;3;0;114;0;0;0;0;4;0;0;0;0;0;0;5;0;31;2;0;0;0;0;0;6;0;0;2;0;0;0;0;0;7;0;8;0;0;0;0;8;0;74;0;0;0;0;9;0;11;0;0;0;0
26.01.19;19:55:00;1;240;12466;0;2;0;0;0;0;0;0;3;0;114;0;0;0;0;4;0;0;0;0;0;0;5;0;31;2;0;0;0;0;0;6;0;0;2;0;0;0;0;0;7;0;8;0;0;0;0;8;0;74;0;0;0;0;9;0;11;0;0;0;0
26.01.19;19:50:00;1;589;12429;0;2;0;0;0;0;0;0;3;0;114;0;0;0;0;4;0;0;0;0;0;0;5;0;31;2;0;0;0;0;0;6;0;0;2;0;0;0;0;0;7;0;8;0;0;0;0;8;0;74;0;0;0;0;9;0;11;0;0;0;0
26.01.19;19:45:00;1;242;12404;0;2;0;0;0;0;0;0;3;0;114;0;0;0;0;4;0;0;0;0;0;0;5;0;31;2;0;0;0;0;0;6;0;0;2;0;0;0;0;0;7;0;8;0;0;0;0;8;0;74;0;0;0;0;9;0;11;0;0;0;0
26.01.19;19:40:00;1;470;12367;0;2;0;0;0;0;0;0;3;0;114;0;0;0;0;4;0;0;0;0;0;0;5;0;31;2;0;0;0;0;0;6;0;0;2;0;0;0;0;0;7;0;8;0;0;0;0;8;0;74;0;0;0;0;9;0;11;0;0;0;0
26.01.19;19:35:00;1;270;12340;0;2;0;0;0;0;0;0;3;0;114;0;0;0;0;4;0;0;0;0;0;0;5;0;31;2;0;0;0;0;0;6;0;0;2;0;0;0;0;0;7;0;8;0;0;0;0;8;0;74;0;0;0;0;9;0;11;0;0;0;0
26.01.19;19:30:00;1;634;12305;0;2;0;0;0;0;0;0;3;0;114;0;0;0;0;4;0;0;0;0;0;0;5;0;31;2;0;0;0;0;0;6;0;0;2;0;0;0;0;0;7;0;8;0;0;0;0;8;0;74;0;0;0;0;9;0;11;0;0;0;0
26.01.19;19:25:00;1;228;12270;0;2;0;0;0;0;0;0;3;0;114;0;0;0;0;4;0;0;0;0;0;0;5;0;31;2;0;0;0;0;0;6;0;0;2;0;0;0;0;0;7;0;8;0;0;0;0;8;0;74;0;0;0;0;9;0;11;0;0;0;0
26.01.19;19:20:00;1;622;12246;0;2;0;0;0;0;0;0;3;0;114;0;0;0;0;4;0;0;0;0;0;0;5;0;31;2;0;0;0;0;0;6;0;0;2;0;0;0;0;0;7;0;8;0;0;0;0;8;0;74;0;0;0;0;9;0;11;0;0;0;0
26.01.19;19:15:00;1;289;12206;0;2;0;0;0;0;0;0;3;0;114;0;0;0;0;4;0;0;0;0;0;0;5;0;31;2;0;0;0;0;0;6;0;0;2;0;0;0;0;0;7;0;8;0;0;0;0;8;0;74;0;0;0;0;9;0;11;0;0;0;0
26.01.19;19:10:00;1;620;12183;0;2;0;0;0;0;0;0;3;0;114;0;0;0;0;4;0;0;0;0;0;0;5;0;31;2;0;0;0;0;0;6;0;0;2;0;0;0;0;0;7;0;8;0;0;0;0;8;0;74;0;0;0;0;9;0;11;0;0;0;0
26.01.19;19:05:00;1;282;12137;0;2;0;0;0;0;0;0;3;0;114;0;0;0;0;4;0;0;0;0;0;0;5;0;31;2;0;0;0;0;0;6;0;0;2;0;0;0;0;0;7;0;8;0;0;0;0;8;0;74;0;0;0;0;9;0;11;0;0;0;0
26.01.19;19:00:00;1;617;12114;0;2;0;0;0;0;0;0;3;0;114;0;0;0;0;4;0;0;0;0;0;0;5;0;31;2;0;0;0;0;0;6;0;0;2;0;0;0;0;0;7;0;8;0;0;0;0;8;0;74;0;0;0;0;9;0;11;0;0;0;0
26.01.19;18:55:00;1;282;12067;0;2;0;0;0;0;0;0;3;0;114;0;0;0;0;4;0;0;0;0;0;0;5;0;31;2;0;0;0;0;0;6;0;0;2;0;0;0;0;0;7;0;8;0;0;0;0;8;0;74;0;0;0;0;9;0;11;0;0;0;0
26.01.19;18:50:00;1;490;12042;0;2;0;0;0;0;0;0;3;0;114;0;0;0;0;4;0;0;0;0;0;0;5;0;31;2;0;0;0;0;0;6;0;0;2;0;0;0;0;0;7;0;8;0;0;0;0;8;0;74;0;0;0;0;9;0;11;0;0;0;0
26.01.19;18:45:00;1;283;11996;0;2;0;0;0;0;0;0;3;0;114;0;0;0;0;4;0;0;0;0;0;0;5;0;31;2;0;0;0;0;0;6;0;0;2;0;0;0;0;0;7;0;8;0;0;0;0;8;0;74;0;0;0;0;9;0;11;0;0;0;0
26.01.19;18:40:00;1;674;11966;0;2;0;0;0;0;0;0;3;0;114;0;0;0;0;4;0;0;0;0;0;0;5;0;31;2;0;0;0;0;0;6;0;0;2;0;0;0;0;0;7;0;8;0;0;0;0;8;0;74;0;0;0;0;9;0;11;0;0;0;0
26.01.19;18:35:00;1;394;11923;0;2;0;0;0;0;0;0;3;0;114;0;0;0;0;4;0;0;0;0;0;0;5;0;31;2;0;0;0;0;0;6;0;0;2;0;0;0;0;0;7;0;8;0;0;0;0;8;0;74;0;0;0;0;9;0;11;0;0;0;0
26.01.19;18:30:00;1;684;11878;0;2;0;0;0;0;0;0;3;0;114;0;0;0;0;4;0;0;0;0;0;0;5;0;31;2;0;0;0;0;0;6;0;0;2;0;0;0;0;0;7;0;8;0;0;0;0;8;0;74;0;0;0;0;9;0;11;0;0;0;0
26.01.19;18:25:00;1;574;11843;0;2;0;0;0;0;0;0;3;0;114;0;0;0;0;4;0;0;0;0;0;0;5;0;31;2;0;0;0;0;0;6;0;0;2;0;0;0;0;0;7;0;8;0;0;0;0;8;0;74;0;0;0;0;9;0;11;0;0;0;0
26.01.19;18:20:00;1;422;11787;0;2;0;0;0;0;0;0;3;0;114;0;0;0;0;4;0;0;0;0;0;0;5;0;31;2;0;0;0;0;0;6;0;0;2;0;0;0;0;0;7;0;8;0;0;0;0;8;0;74;0;0;0;0;9;0;11;0;0;0;0
26.01.19;18:15:00;1;628;11752;0;2;0;0;0;0;0;0;3;0;114;0;0;0;0;4;0;0;0;0;0;0;5;0;31;2;0;0;0;0;0;6;0;0;2;0;0;0;0;0;7;0;8;0;0;0;0;8;0;74;0;0;0;0;9;0;11;0;0;0;0
26.01.19;18:10:00;1;420;11693;0;2;0;0;0;0;0;0;3;0;114;0;0;0;0;4;0;0;0;0;0;0;5;0;31;2;0;0;0;0;0;6;0;0;2;0;0;0;0;0;7;0;8;0;0;0;0;8;0;74;0;0;0;0;9;0;11;0;0;0;0
26.01.19;18:05:00;1;421;11658;0;2;0;0;0;0;0;0;3;0;114;0;0;0;0;4;0;0;0;0;0;0;5;0;31;2;0;0;0;0;0;6;0;0;2;0;0;0;0;0;7;0;8;0;0;0;0;8;0;74;0;0;0;0;9;0;11;0;0;0;0
26.01.19;18:00:00;1;416;11599;0;2;0;0;0;0;0;0;3;0;114;0;0;0;0;4;0;0;0;0;0;0;5;0;31;2;0;0;0;0;0;6;0;0;2;0;0;0;0;0;7;0;8;0;0;0;0;8;0;74;0;0;0;0;9;0;11;0;0;0;0
26.01.19;17:55:00;1;713;11564;0;2;0;0;0;0;0;0;3;0;114;0;0;0;0;4;0;0;0;0;0;0;5;0;31;2;0;0;0;0;0;6;0;0;2;0;0;0;0;0;7;0;8;0;0;0;0;8;0;74;0;0;0;0;9;0;11;0;0;0;0
26.01.19;17:50:00;1;417;11505;0;2;0;0;0;0;0;0;3;0;114;0;0;0;0;4;0;0;0;0;0;0;5;0;31;2;0;0;0;0;0;6;0;0;2;0;0;0;0;0;7;0;8;0;0;0;0;8;0;74;0;0;0;0;9;0;11;0;0;0;0
26.01.19;17:45:00;1;827;11470;0;2;0;0;0;0;0;0;3;0;114;0;0;0;0;4;0;0;0;0;0;0;5;0;31;2;0;0;0;0;0;6;0;0;2;0;0;0;0;0;7;0;8;0;0;0;0;8;0;74;0;0;0;0;9;0;11;0;0;0;0
26.01.19;17:40:00;1;463;11412;0;2;0;0;0;0;0;0;3;0;114;0;0;0;0;4;0;0;0;0;0;0;5;0;31;2;0;0;0;0;0;6;0;0;2;0;0;0;0;0;7;0;8;0;0;0;0;8;0;74;0;0;0;0;9;0;11;0;0;0;0
26.01.19;17:35:00;1;875;11373;0;2;0;0;0;0;0;0;3;0;114;0;0;0;0;4;0;0;0;0;0;0;5;0;31;2;0;0;0;0;0;6;0;0;2;0;0;0;0;0;7;0;8;0;0;0;0;8;0;74;0;0;0;0;9;0;11;0;0;0;0
26.01.19;17:30:00;1;461;11310;0;2;0;0;0;0;0;0;3;0;114;0;0;0;0;4;0;0;0;0;0;0;5;0;31;2;0;0;0;0;0;6;0;0;2;0;0;0;0;0;7;0;8;0;0;0;0;8;0;74;0;0;0;0;9;0;11;0;0;0;0
26.01.19;17:25:00;1;643;11272;0;2;0;0;0;0;0;0;3;0;114;0;0;0;0;4;0;0;0;0;0;0;5;0;31;2;0;0;0;0;0;6;0;0;2;0;0;0;0;0;7;0;8;0;0;0;0;8;0;74;0;0;0;0;9;0;11;0;0;0;0
26.01.19;17:20:00;1;458;11212;0;2;0;0;0;0;0;0;3;0;114;0;0;0;0;4;0;0;0;0;0;0;5;0;31;2;0;0;0;0;0;6;0;0;2;0;0;0;0;0;7;0;8;0;0;0;0;8;0;74;0;0;0;0;9;0;11;0;0;0;0
26.01.19;17:15:00;1;896;11155;0;2;0;0;0;0;0;0;3;0;114;0;0;0;0;4;0;0;0;0;0;0;5;0;31;2;0;0;0;0;0;6;0;0;2;0;0;0;0;0;7;0;8;0;0;0;0;8;0;74;0;0;0;0;9;0;11;0;0;0;0
26.01.19;17:10:00;1;749;11108;0;2;0;0;0;0;0;0;3;0;114;2;0;276;9;4;0;0;0;0;0;0;5;0;31;2;0;0;0;0;0;6;0;0;2;0;0;0;0;0;7;0;8;0;0;0;0;8;0;74;0;0;0;0;9;0;11;0;0;0;0
26.01.19;17:05:00;1;621;11038;0;2;0;0;0;0;0;0;3;0;114;6;0;308;9;4;0;0;0;0;9;0;5;0;31;2;0;0;0;0;0;6;0;0;2;0;0;0;0;0;7;0;8;0;0;0;0;8;0;74;0;0;0;0;9;0;11;0;0;0;0
26.01.19;17:00:00;1;859;10987;0;2;0;0;0;0;0;0;3;0;114;6;0;374;9;4;0;0;2;0;83;0;5;0;31;2;0;0;0;0;0;6;0;0;2;0;0;0;0;0;7;0;8;0;0;172;4;8;0;74;0;0;239;5;9;0;11;0;0;243;3
26.01.19;16:55:00;1;608;10912;0;2;0;0;0;0;0;0;3;0;114;6;0;381;9;4;0;0;1;0;88;0;5;0;31;2;0;0;0;0;0;6;0;0;2;0;0;0;0;0;7;0;8;6;0;258;6;8;0;74;6;0;293;6;9;0;11;6;0;299;4
26.01.19;16:50:00;1;1099;10861;0;2;0;0;0;0;0;0;3;0;114;6;0;389;9;4;0;0;1;0;98;0;5;0;31;2;0;0;0;0;0;6;0;0;2;0;0;0;0;0;7;0;8;6;0;277;6;8;0;74;6;0;312;6;9;0;11;6;0;313;4
26.01.19;16:45:00;1;579;10786;0;2;0;0;7;0;257;4;3;0;114;3;4;394;9;4;0;0;1;0;122;0;5;0;31;2;0;0;0;0;0;6;0;0;2;0;0;0;0;0;7;0;8;6;0;340;6;8;0;74;6;0;380;7;9;0;11;6;0;386;4
26.01.19;16:40:00;1;848;10737;0;2;0;0;7;0;274;4;3;1;114;6;2;419;9;4;0;0;1;0;133;0;5;0;31;2;0;0;0;0;0;6;0;0;2;0;0;0;0;0;7;0;8;6;0;366;6;8;0;74;6;0;401;7;9;0;11;6;0;395;5
26.01.19;16:35:00;1;631;10662;0;2;0;0;7;0;293;4;3;1;114;6;4;424;9;4;0;0;1;0;148;0;5;0;31;2;0;0;0;0;0;6;0;0;2;0;0;0;0;0;7;0;8;6;0;402;7;8;0;74;3;2;409;7;9;0;11;6;0;440;5
26.01.19;16:30:00;1;857;10606;0;2;0;0;7;0;301;4;3;0;114;6;4;452;9;4;0;0;1;0;157;0;5;0;31;2;0;0;0;0;0;6;0;0;2;0;0;0;0;0;7;0;8;6;0;412;7;8;0;74;6;1;443;7;9;0;11;6;0;463;5
26.01.19;16:25:00;1;1273;10536;0;2;0;0;7;0;317;4;3;2;114;6;5;473;9;4;0;0;1;0;155;0;5;0;31;2;0;0;0;0;0;6;0;0;0;0;0;0;0;0;7;0;8;6;0;428;7;8;2;74;6;4;455;7;9;0;11;6;0;489;5
26.01.19;16:20:00;1;1153;10402;0;2;0;0;7;0;331;4;3;2;114;6;6;486;9;4;0;0;1;0;162;0;5;0;31;2;0;0;0;0;0;6;0;0;2;0;0;0;0;0;7;0;8;6;2;424;7;8;2;74;6;4;469;7;9;3;11;4;4;479;5
26.01.19;16:15:00;1;1431;10315;0;2;0;0;7;0;343;4;3;2;113;3;7;486;9;4;0;0;1;0;168;0;5;0;31;2;0;0;0;0;0;6;0;0;2;0;0;0;0;0;7;0;7;6;0;473;7;8;2;74;6;5;477;7;9;3;10;3;5;486;5
26.01.19;16:10:00;1;808;10236;0;2;0;0;7;0;352;4;3;3;113;6;8;518;9;4;0;0;1;0;174;0;5;0;31;2;0;0;0;0;0;6;0;0;2;0;0;0;0;0;7;0;7;4;3;442;7;8;4;74;6;6;489;7;9;2;10;6;2;528;5
26.01.19;16:05:00;1;1086;10169;0;2;0;0;7;0;360;4;3;4;113;6;11;518;9;4;0;0;1;0;179;0;5;0;31;2;0;0;0;0;0;6;0;0;2;0;0;0;0;0;7;2;7;6;2;468;7;8;3;73;3;9;491;7;9;5;10;6;8;500;5
26.01.19;16:00:00;1;2996;10081;0;2;0;0;7;0;362;4;3;29;112;6;46;417;9;4;0;0;1;0;180;0;5;0;31;2;0;0;0;0;0;6;0;0;0;0;0;0;0;0;7;1;7;6;3;449;7;8;5;73;6;7;497;7;9;1;9;6;2;538;5
26.01.19;15:55:00;1;2656;9820;0;2;0;0;7;0;365;4;3;44;110;4;73;351;9;4;0;0;1;0;181;0;5;0;31;2;0;0;0;0;0;6;0;0;1;0;0;0;0;0;7;0;7;6;2;466;7;8;6;73;6;9;493;7;9;2;9;6;3;534;5
26.01.19;15:50:00;1;1665;9591;0;2;0;0;7;0;366;4;3;49;106;4;73;351;9;4;0;0;1;0;182;0;5;0;31;2;0;0;0;0;0;6;0;0;0;0;0;0;0;0;7;0;7;6;1;474;7;8;11;72;6;17;473;7;9;0;9;6;3;533;5
26.01.19;15:45:00;1;812;9489;0;2;0;0;7;0;368;4;3;50;102;4;77;361;9;4;0;0;1;0;181;0;5;0;31;2;0;0;0;0;0;6;0;0;2;0;0;0;0;0;7;0;7;6;2;470;7;8;6;71;6;9;494;7;9;0;9;3;9;503;5
26.01.19;15:40:00;1;1165;9421;0;2;0;0;7;0;379;4;3;69;98;4;96;375;9;4;0;0;1;0;180;0;5;0;31;2;0;0;70;69;5;6;0;0;0;0;0;0;0;0;7;3;7;4;7;454;6;8;37;71;6;58;384;7;9;0;9;6;3;549;5
26.01.19;15:35:00;1;1537;9269;0;2;0;0;7;0;385;4;3;82;92;4;113;388;9;4;0;0;1;0;185;0;5;0;31;1;1;3;268;266;11;6;0;0;2;0;0;0;0;2;7;4;7;3;10;460;6;8;59;68;4;78;355;7;9;2;9;6;4;552;5
26.01.19;15:30:00;1;1340;9138;0;2;0;0;7;0;386;4;3;84;86;4;116;386;9;4;0;0;1;0;180;0;5;0;31;2;0;1;168;166;5;6;0;0;2;0;0;0;0;1;7;0;6;6;4;494;6;8;64;63;4;83;358;7;9;1;9;6;4;560;5
26.01.19;15:25:00;1;1135;9032;0;2;0;0;7;0;389;4;3;93;78;4;124;387;9;4;0;0;1;0;177;0;5;0;31;26;0;3;235;232;8;6;0;0;1;0;0;0;0;1;7;2;6;6;9;461;6;8;66;58;4;86;354;7;9;1;9;6;6;552;5
26.01.19;15:20:00;1;817;8929;0;2;0;0;7;0;390;4;3;94;71;4;124;369;9;4;0;0;1;0;178;0;5;0;31;1;0;2;239;238;7;6;0;0;1;0;0;0;0;1;7;2;6;6;4;497;6;8;66;52;4;87;357;7;9;0;9;6;0;581;5
26.01.19;15:15:00;1;1087;8837;0;2;0;0;7;0;391;4;3;95;63;4;125;355;9;4;0;0;1;0;178;0;5;0;31;1;0;2;273;271;8;6;0;0;0;0;0;0;0;1;7;0;6;6;5;493;6;8;62;47;4;86;359;7;9;3;9;3;9;518;5
26.01.19;15:10:00;1;1060;8763;0;2;0;0;7;0;391;4;3;95;55;4;125;364;9;4;0;0;1;0;178;0;5;0;31;1;0;5;307;304;12;6;0;0;0;0;0;0;0;2;7;0;6;6;0;511;6;8;64;41;4;84;355;7;9;0;8;6;3;557;4
26.01.19;15:05:00;1;866;8669;0;2;0;0;7;0;392;4;3;95;47;4;127;364;9;4;0;0;1;0;179;0;5;0;31;1;0;6;301;299;12;6;0;0;2;1;0;35;50;3;7;1;6;3;11;460;6;8;55;36;4;77;354;6;9;3;8;6;4;551;4
26.01.19;15:00:00;1;1114;8597;0;2;0;0;7;0;398;4;3;111;39;4;143;361;9;4;0;0;1;0;181;0;5;0;31;1;0;0;339;336;12;6;0;0;23;6;4;180;432;10;7;1;6;6;5;500;6;8;64;31;4;85;360;6;9;1;8;6;3;559;4
26.01.19;14:55:00;1;1028;8500;0;2;0;0;7;0;404;4;3;133;30;4;164;374;9;4;0;0;1;0;188;0;5;0;31;26;0;1;389;426;12;6;0;0;23;5;4;181;494;10;7;4;6;6;5;483;6;8;75;26;4;94;357;6;9;3;8;6;4;556;4
26.01.19;14:50:00;1;881;8399;0;2;0;0;7;0;408;4;3;147;19;4;178;366;9;4;0;0;1;0;193;0;5;0;31;23;0;3;392;396;12;6;0;0;23;5;5;181;511;10;7;5;5;6;6;505;6;8;87;20;4;108;359;6;9;0;8;6;4;564;4
26.01.19;14:45:00;1;1508;8323;0;2;0;0;7;0;402;4;3;40;6;4;53;505;8;4;0;0;1;0;193;0;5;0;31;26;0;3;386;384;12;6;0;0;23;7;6;181;511;10;7;0;5;6;6;497;6;8;25;13;4;39;463;6;9;0;8;3;4;545;4
26.01.19;14:40:00;1;835;8228;0;2;0;0;7;0;379;4;3;0;3;4;1;449;8;4;0;0;1;0;198;0;5;0;31;23;0;3;400;433;12;6;0;0;23;5;4;181;525;10;7;2;5;6;3;498;6;8;1;10;6;2;477;6;9;2;8;6;3;538;4
26.01.19;14:35:00;1;1101;8159;0;2;0;0;7;0;381;4;3;0;3;3;4;432;8;4;0;0;1;0;200;0;5;0;31;1;0;4;403;451;12;6;0;0;23;5;5;192;532;10;7;2;5;3;5;490;6;8;3;10;3;2;467;6;9;0;7;6;4;537;4
26.01.19;14:30:00;1;855;8065;0;2;0;0;7;0;380;4;3;0;3;6;1;459;8;4;0;0;1;0;200;0;5;0;31;26;0;4;401;425;12;6;0;0;23;6;5;181;528;10;7;0;5;6;3;490;6;8;2;10;6;1;473;6;9;3;7;6;6;511;4
26.01.19;14:25:00;1;1415;7975;0;2;0;0;7;0;385;4;3;0;3;6;2;456;8;4;0;0;1;0;205;0;5;0;31;23;0;5;409;442;12;6;0;0;23;4;5;181;539;10;7;2;5;6;4;485;6;8;1;10;6;3;472;6;9;2;7;6;3;538;4
26.01.19;14:20:00;1;336;7890;0;2;0;0;7;0;383;4;3;0;3;6;1;443;8;4;0;0;1;0;203;0;5;0;31;23;0;3;407;462;12;6;0;0;23;5;5;181;534;9;7;1;4;6;7;464;6;8;1;10;6;5;454;6;9;2;7;6;3;542;4
26.01.19;14:15:00;1;933;7864;0;2;0;0;7;0;381;4;3;0;3;6;2;452;8;4;0;0;1;0;182;0;5;0;31;23;0;4;404;443;12;6;0;0;23;5;5;181;531;9;7;1;4;6;2;476;6;8;0;9;6;2;456;6;9;2;7;4;3;527;4
26.01.19;14:10:00;1;287;7815;0;2;0;0;7;0;381;4;3;0;3;6;1;459;8;4;0;0;1;0;185;0;5;0;31;26;0;4;404;458;12;6;0;0;23;5;5;181;530;9;7;0;4;6;1;480;6;8;1;9;6;1;459;6;9;3;7;6;4;503;4
26.01.19;14:05:00;1;281;7790;0;2;0;0;7;0;381;4;3;0;3;4;2;453;8;4;0;0;1;0;182;0;5;0;31;26;0;4;403;423;12;6;0;0;23;5;5;181;531;9;7;1;4;4;2;476;6;8;0;9;4;2;453;6;9;1;6;6;2;526;4
26.01.19;14:00:00;1;273;7767;0;2;0;0;7;0;382;4;3;0;3;3;3;440;8;4;0;0;1;0;203;0;5;0;31;26;0;4;406;462;12;6;0;0;23;5;5;235;532;9;7;3;4;6;5;458;6;8;1;9;3;3;440;6;9;1;6;6;2;528;4
26.01.19;13:55:00;1;561;7744;0;2;0;0;7;0;379;4;3;0;3;6;2;436;8;4;0;0;1;0;200;0;5;0;31;23;0;3;399;426;12;6;0;0;23;4;4;181;524;9;7;1;4;6;2;473;6;8;0;9;6;2;452;6;9;2;6;6;2;522;4
26.01.19;13:50:00;1;377;7696;0;2;0;0;7;0;376;4;3;0;3;6;3;432;8;4;0;0;1;0;196;0;5;0;31;23;0;3;395;412;12;6;0;0;23;5;5;181;517;9;7;1;4;6;1;470;6;8;0;9;6;1;451;6;9;1;6;6;2;524;4
26.01.19;13:45:00;1;351;7664;0;2;0;0;7;0;382;4;3;0;3;6;2;453;8;4;0;0;1;0;202;0;5;0;31;26;0;3;407;492;12;6;0;0;23;6;6;181;530;9;7;1;4;6;2;468;6;8;1;9;6;4;427;6;9;2;6;4;2;517;4
26.01.19;13:40:00;1;473;7634;0;2;0;0;7;0;382;4;3;0;3;6;1;450;8;4;0;0;1;0;194;0;5;0;31;26;0;5;402;403;12;6;0;0;23;4;4;181;531;9;7;2;3;6;1;475;6;8;1;9;6;1;452;6;9;5;5;3;6;477;4
26.01.19;13:35:00;1;685;7599;0;2;0;0;7;0;381;4;3;0;2;6;2;453;8;4;0;0;1;0;189;0;5;0;31;26;0;3;406;453;12;6;0;0;23;5;5;181;531;9;7;0;3;4;2;462;6;8;0;9;6;2;440;6;9;0;5;6;1;506;4
26.01.19;13:30:00;1;405;7540;0;2;0;0;7;0;381;4;3;0;2;6;1;453;8;4;0;0;1;0;190;0;5;0;31;23;0;5;404;418;12;6;0;0;23;5;5;181;531;9;7;2;3;3;3;447;6;8;0;9;3;2;426;6;9;1;5;6;1;505;4
26.01.19;13:25:00;1;356;7505;0;2;0;0;7;0;384;4;3;0;2;3;4;431;8;4;0;0;1;0;184;0;5;0;31;23;0;3;409;459;12;6;0;0;23;4;4;181;536;9;7;0;3;6;2;468;6;8;0;9;6;2;436;6;9;4;5;6;4;476;4
26.01.19;13:20:00;1;604;7476;0;2;0;0;7;0;386;4;3;0;2;6;1;463;8;4;0;0;1;0;186;0;5;0;31;23;0;5;411;411;12;6;0;0;23;5;5;181;542;9;7;1;3;6;1;479;6;8;0;9;6;1;452;6;9;1;4;6;2;518;4
26.01.19;13:15:00;1;364;7419;0;2;0;0;7;0;388;4;3;0;2;6;2;462;8;4;0;0;1;0;189;0;5;0;31;23;0;6;414;450;12;6;0;0;23;5;5;181;545;9;7;1;3;6;2;453;6;8;2;9;6;2;451;6;9;2;4;4;2;508;4
26.01.19;13:10:00;1;709;7383;0;2;0;0;7;0;391;4;3;0;2;6;3;449;8;4;0;0;1;0;194;0;5;0;31;26;0;4;419;491;12;6;0;0;23;5;5;182;552;9;7;0;3;6;1;468;6;8;0;9;6;1;462;6;9;4;4;3;4;494;4
26.01.19;13:05:00;1;1486;7318;0;2;0;0;7;0;392;4;3;0;2;6;2;464;8;4;0;0;1;0;195;0;5;0;31;26;0;5;419;517;12;6;0;0;23;6;5;182;553;9;7;0;3;6;0;485;6;8;0;9;6;0;485;6;9;4;4;6;5;489;4
26.01.19;13:00:00;1;642;7209;0;2;0;0;7;0;392;4;3;0;2;6;1;472;8;4;0;0;1;0;196;0;5;6;31;1;1;5;412;522;12;6;0;0;23;5;4;181;554;9;7;0;3;3;3;450;6;8;4;9;3;4;445;6;9;2;3;6;2;526;4
26.01.19;12:55:00;1;432;7147;0;2;0;0;7;0;395;4;3;0;2;4;2;470;8;4;0;0;1;0;202;0;5;0;31;23;0;7;424;566;12;6;0;0;23;5;4;182;559;9;7;0;3;6;5;451;6;8;1;8;6;5;466;5;9;5;3;6;7;493;4
26.01.19;12:50:00;1;474;7109;0;2;0;0;7;0;401;4;3;0;2;3;3;460;8;4;0;0;1;0;198;0;5;7;31;1;2;8;419;640;12;6;0;0;23;4;4;182;569;9;7;0;3;6;4;486;6;8;3;8;6;10;456;5;9;0;3;6;3;541;4
26.01.19;12:45:00;1;1666;7070;0;2;0;0;7;0;402;4;3;0;2;6;5;450;8;4;0;0;1;0;214;0;5;8;30;1;2;7;418;639;12;6;0;0;23;5;5;182;570;9;7;0;3;6;5;488;6;8;1;8;6;5;481;5;9;0;3;6;0;568;4
26.01.19;12:40:00;1;2775;6963;0;2;0;0;7;0;403;4;3;0;2;6;2;486;8;4;0;0;1;0;204;0;5;7;29;1;2;6;423;659;12;6;0;0;23;5;5;182;572;9;7;5;3;6;8;467;6;8;0;8;6;6;470;5;9;1;3;3;7;518;4
26.01.19;12:35:00;1;2461;6734;0;2;0;0;7;0;401;4;3;0;2;6;2;476;8;4;0;0;1;0;214;0;5;14;29;1;2;7;413;619;12;6;0;0;1;5;5;259;571;9;7;0;2;6;0;512;6;8;0;8;6;0;509;5;9;3;3;6;9;505;4
26.01.19;12:30:00;1;4110;6529;0;2;0;0;7;0;399;4;3;0;2;6;3;456;8;4;0;0;1;0;205;0;5;10;28;1;2;3;415;633;12;6;0;0;23;4;4;247;567;9;7;2;2;3;7;456;6;8;1;8;4;10;456;5;9;0;2;6;3;536;4
26.01.19;12:25:00;1;2821;6165;0;2;0;0;7;0;401;4;3;0;2;6;0;505;8;4;0;0;1;0;207;0;5;16;27;1;2;8;413;618;12;6;0;0;23;6;2;543;259;9;7;2;2;6;5;476;6;8;9;8;3;12;455;5;9;3;2;6;4;535;4
26.01.19;12:20:00;1;2502;5945;0;2;0;0;7;0;404;4;3;0;2;3;5;469;8;4;0;0;1;0;214;0;5;8;27;1;2;6;422;653;12;6;0;0;23;6;5;252;515;9;7;2;2;6;4;483;6;8;3;7;6;7;484;5;9;1;2;6;4;546;4
26.01.19;12:15:00;1;1857;5748;0;2;0;0;7;0;403;4;3;0;2;6;3;485;8;4;0;0;1;0;205;0;5;10;26;1;2;6;421;653;12;6;0;0;23;4;4;182;576;9;7;2;2;6;5;484;6;8;6;6;6;9;485;5;9;0;2;6;0;573;4
26.01.19;12:10:00;1;311;5608;0;2;0;0;7;0;399;4;3;1;2;6;4;460;8;4;0;0;1;0;200;-1;5;12;25;1;3;6;416;627;12;6;0;0;23;9;3;529;247;9;7;0;1;6;1;467;6;8;1;6;6;6;482;5;9;0;2;3;7;518;4
26.01.19;12:05:00;1;856;5583;0;2;0;0;7;0;395;4;3;0;2;6;2;475;8;4;0;0;1;0;192;-1;5;7;24;1;2;5;414;633;12;6;0;0;23;5;4;265;488;9;7;2;1;6;1;445;6;8;3;6;6;5;470;5;9;1;2;6;0;473;4